SCP
0 0 0 0 0 0 0 0 0 0 0 0 0 0 0 0 0 0 0 0 0 1 2 1 1 0 0 0 0 0 0 0 0 0 0 0 0 0 0 0 0 0 0
0 0 0 0 0 0 0 0 0 0 0 0 0 0 0 0 0 0 0 0 1 1 2 1 0 0 0 0 0 0 0 0 0 0 0 0 0 0 0 0 0 0 0
0 0 0 0 0 0 0 0 0 0 0 0 0 0 0 0 0 0 0 0 0 1 2 1 0 0 0 0 0 0 0 0 0 0 0 0 0 0 0 0 0 0 0
0 0 0 0 0 0 0 0 0 0 0 0 0 0 0 0 0 0 0 0 0 1 2 1 0 0 0 0 0 0 0 0 0 0 0 0 0 0 0 0 0 0 0
0 0 0 0 0 0 0 0 0 0 0 0 0 0 0 0 0 0 0 0 1 1 1 0 0 0 0 0 0 0 0 0 0 0 0 0 0 0 0 0 0 0 0
0 0 0 0 0 0 0 0 0 0 0 0 0 0 0 0 0 0 0 0 0 1 0 0 0 0 0 0 0 0 0 0 0 0 0 0 0 0 0 0 0 0 0
0 0 0 0 0 0 0 0 0 0 0 0 0 0 0 0 0 0 0 0 0 0 0 0 0 0 0 0 0 0 0 0 0 0 0 0 0 0 0 0 0 0 0
0 0 0 0 0 0 0 0 0 0 0 0 0 0 0 0 0 0 0 0 0 0 0 0 0 0 0 0 0 0 0 0 0 0 0 0 0 0 0 0 0 0 0
0 0 0 0 0 0 0 0 0 0 0 0 0 0 0 0 0 0 0 0 0 0 0 0 0 0 0 0 0 0 0 0 0 0 0 0 0 0 0 0 0 0 0
0 0 0 0 0 0 0 0 0 0 0 0 0 0 0 0 0 0 0 0 0 0 0 0 0 0 0 0 0 0 0 0 0 0 0 0 0 0 0 0 0 0 0
0 0 0 0 0 0 0 0 0 0 0 0 0 0 0 0 0 0 0 0 0 0 0 0 0 0 0 0 0 0 0 0 0 0 0 0 0 0 0 0 0 0 0
0 0 0 0 0 0 0 0 0 0 0 0 0 0 0 0 0 0 0 0 0 0 0 0 0 0 0 0 0 0 0 0 0 0 0 0 0 0 0 0 0 0 0
0 0 0 0 0 0 0 0 0 0 0 0 0 0 0 0 0 0 0 0 0 0 0 0 0 0 0 0 0 0 0 0 0 0 0 0 0 0 0 0 0 0 0
0 0 0 0 0 0 0 0 0 0 0 0 0 0 0 0 0 0 0 0 0 0 0 0 0 0 0 0 0 0 0 0 0 0 0 0 0 0 0 0 0 0 0
0 0 0 0 0 0 0 0 0 0 0 0 0 0 0 0 0 0 0 0 0 0 0 0 0 0 0 0 0 0 0 0 0 0 0 0 0 0 0 0 0 0 0
1 1 1 1 0 0 0 0 0 0 0 0 0 0 0 0 0 0 0 0 0 0 0 0 0 0 0 0 0 0 0 0 0 0 0 0 0 0 0 0 0 0 0
1 1 1 1 0 0 1 0 0 0 0 0 0 0 0 0 0 0 0 0 0 0 0 0 0 0 0 0 0 0 0 0 0 0 0 0 0 0 0 0 0 0 0
2 2 1 1 1 0 0 1 0 0 0 0 0 0 0 0 0 0 0 0 0 0 0 0 0 0 0 0 0 0 0 0 0 0 0 0 0 0 0 0 0 0 0
4 3 2 2 1 1 1 1 1 0 0 0 0 0 0 0 0 0 0 0 0 0 0 0 0 0 0 0 0 0 0 0 0 0 0 0 0 0 0 0 0 0 0
4 4 3 3 2 2 2 1 1 0 0 0 0 0 0 0 0 0 0 0 0 0 0 0 0 0 0 0 0 0 0 0 0 0 0 0 0 0 0 0 0 -0 0
4 4 4 3 2 2 2 1 0 0 0 0 0 0 0 0 0 0 0 0 0 0 0 0 0 0 0 0 0 0 0 0 0 0 0 0 0 0 0 0 0 -0 -0
3 3 3 3 1 0 0 0 0 0 0 0 0 0 0 0 0 0 0 0 0 0 0 0 0 0 0 0 0 0 0 0 0 0 0 0 0 0 0 0 0 -0 0
2 2 3 2 1 0 0 0 0 0 0 0 0 0 0 0 0 0 0 0 0 0 0 0 0 0 0 0 0 0 0 0 0 0 0 0 0 0 0 0 0 0 0
1 2 1 2 1 0 0 0 0 0 0 0 0 0 0 0 0 0 0 0 0 0 0 0 0 0 0 0 0 0 0 0 0 0 0 0 0 0 0 0 0 0 0
1 1 1 1 0 0 0 0 0 0 0 0 0 0 0 0 -0 0 0 0 0 0 0 0 0 0 0 0 0 0 0 0 0 0 0 0 0 0 0 0 0 0 0
1 1 1 1 0 0 0 0 0 0 0 0 0 0 0 0 0 0 0 0 0 0 0 0 0 0 0 0 0 0 0 0 0 0 0 0 0 0 0 0 -0 0 0
Wind_Speed_500mb
65 64 64 60 54 47 43 38 34 31 28 25 23 26 18 15 10 7 7 13 12 17 21 20 17 15 23 31 39 45 49 47 43 37 31 25 25 22 17 16 15 14 14
58 60 61 59 53 48 43 37 35 33 29 25 25 24 18 12 7 5 8 13 18 22 22 19 13 16 25 30 41 42 48 53 49 39 29 21 16 19 21 20 16 13 16
55 55 59 58 51 46 43 39 38 35 28 27 26 25 21 15 11 8 10 14 18 21 19 15 14 20 25 32 39 40 48 54 53 40 28 21 15 14 16 16 14 17 17
57 56 55 54 48 45 43 40 39 35 27 28 26 21 19 14 13 12 12 12 19 17 16 14 14 19 25 30 39 41 53 61 56 39 29 22 20 18 18 22 20 16 19
61 55 53 52 48 47 45 42 42 36 33 30 25 19 15 13 11 4 7 13 14 14 16 12 14 18 22 31 37 41 51 60 52 38 31 24 20 19 20 21 21 20 19
65 58 55 53 50 49 48 48 44 38 36 31 23 17 13 11 8 7 11 14 12 13 16 12 16 19 23 30 33 38 48 55 44 33 27 25 20 21 22 23 23 22 25
68 63 59 54 54 51 46 48 42 42 39 33 24 16 13 13 12 13 15 15 14 14 14 14 16 18 23 27 30 36 46 51 37 32 29 29 26 25 24 24 23 23 23
71 68 63 59 56 54 51 49 45 45 41 36 29 22 15 14 17 18 18 16 16 16 15 17 18 20 22 26 28 35 45 46 33 31 30 30 26 25 26 26 27 26 27
76 73 67 64 62 58 57 55 50 49 48 44 38 24 12 12 22 21 21 19 19 19 20 21 21 23 25 25 26 34 41 37 29 28 27 25 25 26 27 27 27 26 26
78 75 71 69 64 65 63 60 54 51 46 47 43 40 30 13 10 10 20 20 21 24 24 22 22 25 24 23 27 36 39 29 23 26 25 22 24 24 27 28 29 28 27
72 73 72 71 70 69 64 62 59 56 51 48 47 44 38 33 28 25 17 23 26 26 24 24 25 22 21 20 25 34 30 22 22 25 26 22 22 24 27 31 32 31 33
68 67 66 66 69 72 67 63 63 57 55 53 53 49 40 36 33 31 29 22 26 27 25 27 21 18 18 19 26 32 24 16 17 22 21 22 25 30 34 38 39 36 35
68 67 63 62 65 65 67 66 62 62 60 58 55 50 44 40 35 29 28 26 24 27 24 20 17 18 19 19 25 22 16 12 13 17 16 19 24 30 38 43 41 39 37
60 58 60 62 61 56 61 62 65 66 65 59 55 52 48 38 31 32 31 31 21 27 26 20 18 21 23 21 21 18 16 12 11 15 13 15 22 28 36 42 44 42 40
62 60 56 57 60 60 60 59 61 65 70 67 56 56 48 39 36 27 27 24 22 22 22 19 18 23 24 23 17 13 15 7 7 11 9 16 22 26 31 36 42 46 41
64 58 53 53 55 59 63 66 66 66 66 67 62 53 46 41 37 29 28 22 22 25 18 16 17 21 22 23 13 12 14 9 8 7 9 13 19 19 25 34 40 44 46
65 64 56 49 50 56 65 72 71 72 63 64 67 57 49 43 38 30 28 21 23 24 17 18 17 21 20 21 15 16 11 6 5 8 5 10 13 14 22 31 39 45 46
76 70 62 55 51 55 59 72 76 75 71 66 63 55 50 45 40 31 26 21 22 21 12 18 17 20 20 18 18 17 4 3 5 3 4 10 10 12 20 28 38 44 44
68 67 65 57 52 47 52 63 69 73 71 62 62 58 55 48 40 29 22 28 20 17 13 15 17 19 18 18 17 14 8 6 4 1 6 11 12 13 22 28 35 43 46
59 63 61 52 49 48 56 57 58 69 65 66 55 46 46 39 29 17 24 23 10 19 11 14 18 16 16 18 15 15 15 13 8 8 5 10 10 13 18 26 36 42 44
56 53 51 51 51 50 58 58 51 59 67 62 58 71 51 44 30 17 21 7 21 19 15 14 21 16 19 20 17 25 21 14 9 7 6 10 9 13 19 28 35 43 47
60 53 51 53 59 50 51 49 59 75 74 67 55 67 72 60 39 28 16 15 30 24 20 18 22 23 22 19 18 28 27 17 10 7 10 9 8 8 16 26 34 40 43
63 59 62 59 58 49 46 56 61 77 77 74 76 100 82 65 47 29 27 31 43 30 26 24 23 22 20 15 19 22 25 26 21 17 15 11 11 5 12 18 27 34 39
66 70 67 64 59 51 44 59 72 66 77 69 82 89 81 64 56 56 51 44 33 27 24 22 23 21 19 18 22 18 16 18 18 13 12 11 8 5 5 14 26 29 34
60 61 63 64 59 46 47 63 94 73 70 73 72 80 65 66 68 70 59 37 32 28 27 24 19 18 18 19 19 16 17 19 14 8 8 7 3 12 6 14 23 30 27
50 57 59 56 50 46 55 81 85 80 68 66 69 67 54 56 54 46 40 34 30 29 29 26 25 21 19 16 13 13 14 17 16 7 3 2 2 10 8 10 28 36 37
Wind_Direction_500mb
207 206 206 208 208 207 209 212 212 214 215 213 215 219 233 255 259 286 318 0 339 309 310 318 333 336 344 347 354 358 1 4 1 0 3 12 6 353 341 343 345 347 347
212 212 212 211 209 210 212 214 214 216 216 216 218 215 229 226 233 279 329 344 326 301 304 319 339 343 347 352 355 358 0 4 0 1 5 12 3 347 357 348 341 348 342
213 216 217 216 213 212 214 212 213 218 217 221 219 219 230 238 263 301 327 325 305 290 301 329 338 345 350 350 351 356 358 3 3 2 1 354 2 1 6 351 350 347 337
216 218 220 219 215 214 213 212 214 219 211 211 208 226 234 242 277 300 313 314 288 286 302 328 337 343 345 347 352 355 359 1 0 358 2 359 350 342 332 330 335 332 327
218 220 221 219 216 216 215 214 215 216 204 210 218 231 236 246 290 298 280 270 271 277 306 319 333 338 339 348 348 357 358 356 357 360 3 12 351 337 332 338 335 332 335
220 222 222 219 217 217 217 217 217 212 205 215 224 238 235 258 240 224 237 263 261 283 301 309 324 331 332 344 341 353 357 353 0 6 11 18 3 353 348 336 334 334 337
221 223 225 220 217 217 217 215 213 208 211 218 229 224 218 223 208 210 232 247 259 282 283 293 307 317 327 330 337 349 353 354 7 16 24 24 11 359 351 352 348 345 340
223 226 227 224 218 215 211 209 207 210 219 223 229 222 191 207 212 219 231 247 267 277 271 288 296 308 315 319 333 348 349 352 5 15 19 22 13 8 13 8 10 3 353
226 227 228 227 222 219 214 212 215 219 228 229 223 214 190 206 215 223 232 249 264 265 271 280 291 302 303 311 331 341 348 350 359 2 6 6 3 5 5 6 3 355 350
225 228 229 229 225 221 219 217 220 227 233 230 221 227 230 226 185 187 223 238 255 265 270 276 288 294 292 306 328 337 346 346 346 353 353 359 7 9 10 0 353 349 347
223 225 229 230 227 223 222 221 222 226 235 230 230 239 238 237 249 253 248 239 251 258 266 277 285 281 279 297 322 333 341 343 344 352 359 16 24 20 21 15 6 3 2
219 219 225 226 227 224 224 223 226 229 234 235 240 250 255 252 255 265 260 246 243 253 260 275 274 269 271 298 322 333 338 349 349 354 13 21 28 28 24 24 21 16 14
218 220 220 221 222 223 226 226 228 232 233 237 240 244 254 257 260 262 261 257 237 248 254 266 271 270 275 298 323 333 346 358 343 351 1 11 19 22 22 25 19 18 18
219 222 225 227 229 227 225 226 232 235 236 236 237 241 251 253 250 254 255 252 242 244 247 260 264 271 280 298 324 344 357 350 328 337 346 348 7 15 23 25 21 16 18
226 223 225 231 234 234 231 229 231 235 236 235 238 241 246 245 245 241 245 246 254 244 255 251 253 263 271 290 316 348 353 336 320 331 330 351 355 2 16 21 21 17 12
237 232 227 232 239 239 239 234 235 237 237 235 236 238 241 240 235 226 232 238 234 238 253 255 259 263 265 281 297 325 329 301 316 338 328 343 345 343 8 13 15 13 13
243 242 236 238 241 242 242 240 238 239 238 232 231 235 240 234 233 226 222 224 227 227 237 263 261 252 254 267 280 307 320 277 319 315 323 341 333 338 358 13 10 10 11
248 248 246 248 251 248 249 246 241 243 237 230 226 227 227 225 223 221 219 224 222 234 241 261 258 240 242 248 271 303 281 204 78 95 335 326 326 331 3 14 12 10 9
244 247 251 257 260 258 258 254 248 245 242 234 226 221 220 224 211 217 218 219 218 245 279 271 257 227 227 231 262 283 201 182 150 134 310 323 320 341 1 11 13 10 9
236 243 250 256 256 254 256 257 251 241 237 229 216 222 230 217 211 194 218 217 242 251 273 281 241 219 226 226 255 232 202 197 208 238 272 316 317 332 347 3 6 3 5
238 243 239 241 246 249 251 253 250 246 233 202 209 207 221 207 182 161 228 273 255 263 257 261 237 232 230 229 248 217 202 203 212 242 296 308 313 335 347 354 359 0 1
233 229 227 232 235 244 252 246 236 221 200 173 179 208 209 201 192 195 233 305 264 260 253 254 244 245 232 240 238 213 208 211 198 247 270 294 298 327 354 357 358 354 358
225 228 225 224 229 235 244 248 228 207 201 208 224 205 193 196 203 202 196 244 253 256 247 255 240 232 244 245 217 205 208 222 238 264 262 283 296 325 356 355 354 353 358
222 226 218 218 224 230 237 214 198 187 196 211 212 211 209 205 215 219 221 231 241 241 234 242 226 230 229 204 200 194 197 213 224 238 255 257 291 194 36 348 355 352 3
216 218 220 222 220 223 219 210 202 212 212 213 204 198 213 205 206 211 210 226 230 224 220 209 203 196 193 199 206 203 201 211 227 256 255 243 313 164 126 2 2 1 355
218 217 215 223 232 216 205 204 208 201 209 200 198 192 200 211 203 207 217 230 219 204 197 180 170 171 177 182 183 187 198 215 225 223 279 113 62 170 188 10 355 6 7
Wind_Speed_850mb
65 64 64 60 54 47 43 38 34 31 28 25 23 26 18 15 10 7 7 13 12 17 21 20 17 15 23 31 39 45 49 47 43 37 31 25 25 22 17 16 15 14 14
58 60 61 59 53 48 43 37 35 33 29 25 25 24 18 12 7 5 8 13 18 22 22 19 13 16 25 30 41 42 48 53 49 39 29 21 16 19 21 20 16 13 16
55 55 59 58 51 46 43 39 38 35 28 27 26 25 21 15 11 8 10 14 18 21 19 15 14 20 25 32 39 40 48 54 53 40 28 21 15 14 16 16 14 17 17
57 56 55 54 48 45 43 40 39 35 27 28 26 21 19 14 13 12 12 12 19 17 16 14 14 19 25 30 39 41 53 61 56 39 29 22 20 18 18 22 20 16 19
61 55 53 52 48 47 45 42 42 36 33 30 25 19 15 13 11 4 7 13 14 14 16 12 14 18 22 31 37 41 51 60 52 38 31 24 20 19 20 21 21 20 19
65 58 55 53 50 49 48 48 44 38 36 31 23 17 13 11 8 7 11 14 12 13 16 12 16 19 23 30 33 38 48 55 44 33 27 25 20 21 22 23 23 22 25
68 63 59 54 54 51 46 48 42 42 39 33 24 16 13 13 12 13 15 15 14 14 14 14 16 18 23 27 30 36 46 51 37 32 29 29 26 25 24 24 23 23 23
71 68 63 59 56 54 51 49 45 45 41 36 29 22 15 14 17 18 18 16 16 16 15 17 18 20 22 26 28 35 45 46 33 31 30 30 26 25 26 26 27 26 27
76 73 67 64 62 58 57 55 50 49 48 44 38 24 12 12 22 21 21 19 19 19 20 21 21 23 25 25 26 34 41 37 29 28 27 25 25 26 27 27 27 26 26
78 75 71 69 64 65 63 60 54 51 46 47 43 40 30 13 10 10 20 20 21 24 24 22 22 25 24 23 27 36 39 29 23 26 25 22 24 24 27 28 29 28 27
72 73 72 71 70 69 64 62 59 56 51 48 47 44 38 33 28 25 17 23 26 26 24 24 25 22 21 20 25 34 30 22 22 25 26 22 22 24 27 31 32 31 33
68 67 66 66 69 72 67 63 63 57 55 53 53 49 40 36 33 31 29 22 26 27 25 27 21 18 18 19 26 32 24 16 17 22 21 22 25 30 34 38 39 36 35
68 67 63 62 65 65 67 66 62 62 60 58 55 50 44 40 35 29 28 26 24 27 24 20 17 18 19 19 25 22 16 12 13 17 16 19 24 30 38 43 41 39 37
60 58 60 62 61 56 61 62 65 66 65 59 55 52 48 38 31 32 31 31 21 27 26 20 18 21 23 21 21 18 16 12 11 15 13 15 22 28 36 42 44 42 40
62 60 56 57 60 60 60 59 61 65 70 67 56 56 48 39 36 27 27 24 22 22 22 19 18 23 24 23 17 13 15 7 7 11 9 16 22 26 31 36 42 46 41
64 58 53 53 55 59 63 66 66 66 66 67 62 53 46 41 37 29 28 22 22 25 18 16 17 21 22 23 13 12 14 9 8 7 9 13 19 19 25 34 40 44 46
65 64 56 49 50 56 65 72 71 72 63 64 67 57 49 43 38 30 28 21 23 24 17 18 17 21 20 21 15 16 11 6 5 8 5 10 13 14 22 31 39 45 46
76 70 62 55 51 55 59 72 76 75 71 66 63 55 50 45 40 31 26 21 22 21 12 18 17 20 20 18 18 17 4 3 5 3 4 10 10 12 20 28 38 44 44
68 67 65 57 52 47 52 63 69 73 71 62 62 58 55 48 40 29 22 28 20 17 13 15 17 19 18 18 17 14 8 6 4 1 6 11 12 13 22 28 35 43 46
59 63 61 52 49 48 56 57 58 69 65 66 55 46 46 39 29 17 24 23 10 19 11 14 18 16 16 18 15 15 15 13 8 8 5 10 10 13 18 26 36 42 44
56 53 51 51 51 50 58 58 51 59 67 62 58 71 51 44 30 17 21 7 21 19 15 14 21 16 19 20 17 25 21 14 9 7 6 10 9 13 19 28 35 43 47
60 53 51 53 59 50 51 49 59 75 74 67 55 67 72 60 39 28 16 15 30 24 20 18 22 23 22 19 18 28 27 17 10 7 10 9 8 8 16 26 34 40 43
63 59 62 59 58 49 46 56 61 77 77 74 76 100 82 65 47 29 27 31 43 30 26 24 23 22 20 15 19 22 25 26 21 17 15 11 11 5 12 18 27 34 39
66 70 67 64 59 51 44 59 72 66 77 69 82 89 81 64 56 56 51 44 33 27 24 22 23 21 19 18 22 18 16 18 18 13 12 11 8 5 5 14 26 29 34
60 61 63 64 59 46 47 63 94 73 70 73 72 80 65 66 68 70 59 37 32 28 27 24 19 18 18 19 19 16 17 19 14 8 8 7 3 12 6 14 23 30 27
50 57 59 56 50 46 55 81 85 80 68 66 69 67 54 56 54 46 40 34 30 29 29 26 25 21 19 16 13 13 14 17 16 7 3 2 2 10 8 10 28 36 37
Wind_Direction_850mb
207 206 206 208 208 207 209 212 212 214 215 213 215 219 233 255 259 286 318 0 339 309 310 318 333 336 344 347 354 358 1 4 1 0 3 12 6 353 341 343 345 347 347
212 212 212 211 209 210 212 214 214 216 216 216 218 215 229 226 233 279 329 344 326 301 304 319 339 343 347 352 355 358 0 4 0 1 5 12 3 347 357 348 341 348 342
213 216 217 216 213 212 214 212 213 218 217 221 219 219 230 238 263 301 327 325 305 290 301 329 338 345 350 350 351 356 358 3 3 2 1 354 2 1 6 351 350 347 337
216 218 220 219 215 214 213 212 214 219 211 211 208 226 234 242 277 300 313 314 288 286 302 328 337 343 345 347 352 355 359 1 0 358 2 359 350 342 332 330 335 332 327
218 220 221 219 216 216 215 214 215 216 204 210 218 231 236 246 290 298 280 270 271 277 306 319 333 338 339 348 348 357 358 356 357 360 3 12 351 337 332 338 335 332 335
220 222 222 219 217 217 217 217 217 212 205 215 224 238 235 258 240 224 237 263 261 283 301 309 324 331 332 344 341 353 357 353 0 6 11 18 3 353 348 336 334 334 337
221 223 225 220 217 217 217 215 213 208 211 218 229 224 218 223 208 210 232 247 259 282 283 293 307 317 327 330 337 349 353 354 7 16 24 24 11 359 351 352 348 345 340
223 226 227 224 218 215 211 209 207 210 219 223 229 222 191 207 212 219 231 247 267 277 271 288 296 308 315 319 333 348 349 352 5 15 19 22 13 8 13 8 10 3 353
226 227 228 227 222 219 214 212 215 219 228 229 223 214 190 206 215 223 232 249 264 265 271 280 291 302 303 311 331 341 348 350 359 2 6 6 3 5 5 6 3 355 350
225 228 229 229 225 221 219 217 220 227 233 230 221 227 230 226 185 187 223 238 255 265 270 276 288 294 292 306 328 337 346 346 346 353 353 359 7 9 10 0 353 349 347
223 225 229 230 227 223 222 221 222 226 235 230 230 239 238 237 249 253 248 239 251 258 266 277 285 281 279 297 322 333 341 343 344 352 359 16 24 20 21 15 6 3 2
219 219 225 226 227 224 224 223 226 229 234 235 240 250 255 252 255 265 260 246 243 253 260 275 274 269 271 298 322 333 338 349 349 354 13 21 28 28 24 24 21 16 14
218 220 220 221 222 223 226 226 228 232 233 237 240 244 254 257 260 262 261 257 237 248 254 266 271 270 275 298 323 333 346 358 343 351 1 11 19 22 22 25 19 18 18
219 222 225 227 229 227 225 226 232 235 236 236 237 241 251 253 250 254 255 252 242 244 247 260 264 271 280 298 324 344 357 350 328 337 346 348 7 15 23 25 21 16 18
226 223 225 231 234 234 231 229 231 235 236 235 238 241 246 245 245 241 245 246 254 244 255 251 253 263 271 290 316 348 353 336 320 331 330 351 355 2 16 21 21 17 12
237 232 227 232 239 239 239 234 235 237 237 235 236 238 241 240 235 226 232 238 234 238 253 255 259 263 265 281 297 325 329 301 316 338 328 343 345 343 8 13 15 13 13
243 242 236 238 241 242 242 240 238 239 238 232 231 235 240 234 233 226 222 224 227 227 237 263 261 252 254 267 280 307 320 277 319 315 323 341 333 338 358 13 10 10 11
248 248 246 248 251 248 249 246 241 243 237 230 226 227 227 225 223 221 219 224 222 234 241 261 258 240 242 248 271 303 281 204 78 95 335 326 326 331 3 14 12 10 9
244 247 251 257 260 258 258 254 248 245 242 234 226 221 220 224 211 217 218 219 218 245 279 271 257 227 227 231 262 283 201 182 150 134 310 323 320 341 1 11 13 10 9
236 243 250 256 256 254 256 257 251 241 237 229 216 222 230 217 211 194 218 217 242 251 273 281 241 219 226 226 255 232 202 197 208 238 272 316 317 332 347 3 6 3 5
238 243 239 241 246 249 251 253 250 246 233 202 209 207 221 207 182 161 228 273 255 263 257 261 237 232 230 229 248 217 202 203 212 242 296 308 313 335 347 354 359 0 1
233 229 227 232 235 244 252 246 236 221 200 173 179 208 209 201 192 195 233 305 264 260 253 254 244 245 232 240 238 213 208 211 198 247 270 294 298 327 354 357 358 354 358
225 228 225 224 229 235 244 248 228 207 201 208 224 205 193 196 203 202 196 244 253 256 247 255 240 232 244 245 217 205 208 222 238 264 262 283 296 325 356 355 354 353 358
222 226 218 218 224 230 237 214 198 187 196 211 212 211 209 205 215 219 221 231 241 241 234 242 226 230 229 204 200 194 197 213 224 238 255 257 291 194 36 348 355 352 3
216 218 220 222 220 223 219 210 202 212 212 213 204 198 213 205 206 211 210 226 230 224 220 209 203 196 193 199 206 203 201 211 227 256 255 243 313 164 126 2 2 1 355
218 217 215 223 232 216 205 204 208 201 209 200 198 192 200 211 203 207 217 230 219 204 197 180 170 171 177 182 183 187 198 215 225 223 279 113 62 170 188 10 355 6 7